EW4536 Weather Reports


Display with metric or nautical units.
time (UTC)temp
F
wind
direction
speed
MPH
gust
MPH
rain 1hr
in
rain 24hr
in
rain mn
in
humidity
%
barometer
mb
20260906010015 80 213 0.0 0.0 0.00 0.01 0.01 90 1011.1
20260906004553 81 213 0.0 0.0 0.00 0.03 0.01 89 1011.0
20260906003010 81 213 0.0 0.0 0.00 0.03 0.01 87 1010.5
20260906001551 82 213 0.0 0.0 0.00 0.03 0.01 86 1010.4
20260906000034 83 213 0.0 0.0 0.00 0.03 0.01 84 1010.2
20260905234549 84 213 0.0 2.0 0.00 0.08 0.01 81 1010.3
20260905233013 85 213 1.0 5.0 0.00 0.08 0.01 79 1010.2
20260905231559 86 202 1.0 4.0 0.00 0.08 0.01 79 1010.3
20260905230028 87 200 1.0 5.0 0.00 0.08 0.01 77 1010.3
20260905224558 88 194 1.0 4.0 0.00 0.17 0.01 76 1010.5
20260905223030 88 192 2.0 5.0 0.00 0.17 0.01 75 1010.8
20260905221608 88 146 0.0 3.0 0.00 0.17 0.01 75 1011.0
20260905220038 88 215 0.0 4.0 0.00 0.17 0.01 75 1011.1
20260905214506 89 182 2.0 8.0 0.00 0.57 0.01 73 1011.1
20260905213042 90 215 3.0 6.0 0.00 0.57 0.01 73 1010.9
20260905211505 90 200 3.0 6.0 0.00 0.57 0.01 72 1010.8
20260905210041 89 219 2.0 6.0 0.00 0.57 0.01 73 1010.9
20260905204611 89 213 3.0 7.0 0.00 0.74 0.01 71 1010.9
20260905203041 89 216 3.0 7.0 0.00 0.74 0.01 73 1011.0
20260905201512 89 221 3.0 6.0 0.00 0.74 0.01 73 1011.3
20260905200054 90 197 2.0 10.0 0.00 0.74 0.01 74 1011.2
20260905194520 91 213 5.0 10.0 0.00 0.75 0.01 68 1011.2
20260905193054 90 237 4.0 7.0 0.01 0.75 0.01 71 1011.4
20260905191525 89 251 4.0 8.0 0.01 0.75 0.01 71 1011.8
20260905190114 87 216 2.0 6.0 0.01 0.75 0.01 74 1012.0
20260905184543 85 196 2.0 7.0 0.01 0.75 0.01 81 1012.0
20260905183106 88 252 1.0 3.0 0.00 0.74 0.00 72 1012.1
20260905181530 87 261 3.0 6.0 0.00 0.74 0.00 76 1012.5
20260905180058 88 253 2.0 5.0 0.00 0.74 0.00 72 1012.5
20260905174517 87 260 0.0 4.0 0.00 0.74 0.00 75 1012.4
20260905173052 85 152 0.0 7.0 0.00 0.74 0.00 81 1012.7
20260905171508 86 236 3.0 6.0 0.00 0.74 0.00 75 1013.0
20260905170042 86 226 5.0 9.0 0.00 0.74 0.00 76 1013.2
20260905164514 86 259 3.0 8.0 0.00 0.74 0.00 79 1013.5
20260905163042 84 26 2.0 5.0 0.00 0.74 0.00 83 1013.7
20260905161517 86 22 3.0 8.0 0.00 0.74 0.00 78 1013.9
20260905160055 86 43 3.0 6.0 0.00 0.74 0.00 78 1014.0
20260905154517 84 269 2.0 9.0 0.00 0.74 0.00 81 1014.1
20260905153055 86 360 4.0 9.0 0.00 0.74 0.00 78 1014.3
20260905151518 85 222 4.0 8.0 0.00 0.74 0.00 82 1014.4
20260905150049 84 198 2.0 6.0 0.00 0.74 0.00 84 1014.3
20260905144518 84 199 3.0 10.0 0.00 0.74 0.00 85 1014.3
20260905143049 83 227 4.0 8.0 0.00 0.74 0.00 87 1014.3
20260905141513 82 198 2.0 6.0 0.00 0.74 0.00 90 1014.4
20260905140047 81 203 3.0 6.0 0.00 0.74 0.00 94 1014.4
20260905134618 80 254 2.0 5.0 0.00 0.74 0.00 96 1014.3
20260905133042 79 240 2.0 5.0 0.00 0.74 0.00 97 1014.4
20260905131607 77 213 1.0 3.0 0.00 0.74 0.00 97 1014.3
20260905130021 77 227 1.0 3.0 0.00 0.74 0.00 97 1014.2
20260905124600 76 223 2.0 4.0 0.00 0.74 0.00 97 1014.2
20260905123025 76 179 1.0 4.0 0.00 0.74 0.00 97 1014.2
20260905121608 75 215 1.0 3.0 0.00 0.74 0.00 97 1013.9
20260905120030 75 213 0.0 2.0 0.00 0.74 0.00 97 1013.7
20260905114604 75 213 1.0 2.0 0.00 0.74 0.00 97 1013.5
20260905113038 75 214 0.0 2.0 0.00 0.74 0.00 97 1013.3
20260905111646 75 192 0.0 2.0 0.00 0.74 0.00 97 1013.3
20260905110038 75 192 0.0 1.0 0.00 0.74 0.00 97 1013.0
20260905104608 75 191 0.0 2.0 0.00 0.74 0.00 97 1012.8
20260905103028 75 190 0.0 3.0 0.00 0.74 0.00 97 1012.8
20260905101605 75 113 0.0 4.0 0.00 0.74 0.00 97 1012.9
20260905100022 75 182 1.0 4.0 0.00 0.74 0.00 97 1012.9
20260905094556 75 178 0.0 0.0 0.00 0.74 0.00 97 1013.1
20260905093021 75 178 0.0 2.0 0.00 0.74 0.00 97 1013.1
20260905091558 75 178 0.0 2.0 0.00 0.74 0.00 97 1013.0
20260905090017 75 178 0.0 2.0 0.00 0.74 0.00 97 1013.0
20260905084556 75 179 0.0 2.0 0.00 0.74 0.00 97 1012.8
20260905083013 75 172 0.0 0.0 0.00 0.74 0.00 97 1012.6
20260905081551 75 172 0.0 0.0 0.00 0.74 0.00 97 1012.7
20260905080012 76 172 0.0 0.0 0.00 0.74 0.00 97 1012.7
20260905074552 76 172 0.0 0.0 0.00 0.74 0.00 97 1012.8
20260905073019 76 172 0.0 0.0 0.00 0.74 0.00 97 1013.0
20260905071549 76 172 0.0 0.0 0.00 0.74 0.00 97 1013.1
20260905070013 76 172 0.0 0.0 0.00 0.74 0.00 97 1013.3
20260905064548 76 172 0.0 0.0 0.00 0.74 0.00 97 1013.3
20260905063014 76 173 0.0 0.0 0.00 0.74 0.00 97 1013.3
20260905061559 76 173 0.0 0.0 0.00 0.74 0.00 97 1013.5
20260905060028 75 173 0.0 0.0 0.00 0.74 0.00 97 1013.6
20260905054602 75 173 0.0 0.0 0.00 0.74 0.00 97 1013.7
20260905053022 75 175 0.0 0.0 0.00 0.74 0.00 97 1013.9
20260905051559 75 174 0.0 0.0 0.00 0.74 0.00 96 1014.0
20260905050026 75 211 0.0 0.0 0.00 0.74 0.00 96 1014.0
20260905044600 75 212 0.0 0.0 0.00 0.74 0.00 96 1014.0
20260905043025 75 212 0.0 0.0 0.00 0.74 0.00 96 1014.1
20260905041608 75 212 0.0 0.0 0.00 0.74 0.00 96 1013.9
20260905040032 75 213 0.0 0.0 0.00 0.74 0.00 96 1013.8
20260905034619 75 214 0.0 0.0 0.00 0.74 0.74 96 1014.0
20260905033102 75 214 0.0 1.0 0.00 0.74 0.74 96 1014.2
20260905031615 75 214 0.0 2.0 0.00 0.74 0.74 96 1014.4
20260905030051 75 214 0.0 2.0 0.00 0.74 0.74 96 1014.5
20260905024508 75 214 0.0 2.0 0.00 0.74 0.74 96 1014.6
20260905023053 76 214 0.0 2.0 0.00 0.74 0.74 96 1014.7
20260905021505 76 214 0.0 2.0 0.00 0.74 0.74 96 1014.8
20260905020040 76 214 0.0 2.0 0.00 0.74 0.74 96 1014.6
20260905014503 76 215 0.0 2.0 0.00 0.74 0.74 96 1014.4
20260905013041 76 100 0.0 1.0 0.01 0.74 0.74 96 1014.5
20260905011610 76 99 0.0 0.0 0.01 0.74 0.74 96 1014.4